FENGYUN 1C DEB, 31902

Orbit data source: Space-Track

FENGYUN 1C DEB, 31902 is space debris in SSO originally from a launch on Mon, 10 May 1999 UTC launched from the Taiyaun Space Center, China (TSC). Fengyun 1C debris stems from the Chinese weather satellite Fengyun-1C, which was intentionally destroyed by a Chinese anti-satellite missile in 2007. This event dramatically increased the amount of space debris, with thousands of trackable fragments posing hazards to satellites and human spaceflight. The Fengyun 1C debris cloud has become a focal point in discussions about space sustainability and the need for international regulations to prevent the creation of new debris.

Loading next visibility...
Identifier
31902, 1999-025CLD
Orbit
SSO
Country
Flag of CNCN / PRC
Related business
Manufacturer
Unknown
Mission
Spacecraft
Bus & Motor
Unknown
Mass
Unknown
Launch date (UTC)
1999-05-10 (27 years ago)
Launch vehicle
Unknown
Launch site
Taiyaun Space Center, China (TSC)
Object type
Payload
Rocket body
Debris
Shape & HBR
Unknown shape, 0.1 m
Radar Cross Section
Small (<0.1 m²)

Expand to show TLE details & history
Last TLE update: 3 days ago

TLE from 3 days ago
0 FENGYUN 1C DEB
1 31902U 99025CLD 26252.76717801  .00000429  00000-0  17491-3 0  9994
2 31902  98.5364 229.3584 0180713  79.4118  40.5223 14.23662386686473
Epoch: 2026-09-09T18:24Z
TLE epoch observation values (Epoch: 2026-09-09T18:24:44.180Z)
Latitude
57.76893°
Longitude
158.05691°
Altitude
724.896 km
Speed
7.549 km/s
True Right ascension
04h 12m 13s
True Declination
57° 36' 46"
Sunlit
Object was in daylight at epoch
Visualization orbit readout
Latitude
Unknown
Longitude
Unknown
Altitude
Unknown
Speed
Unknown
Apparent Right ascension
Unknown
Apparent Declination
Unknown
Sunlit
N/A
Visualization observer readout
Local Sidereal Time
09:33:11
Azimuth
Unknown
Elevation
Unknown
Doppler factor
Unknown
Orbital elements
Apogee altitude
940.039 km
Perigee altitude
680.236 km
Semi-major axis
7,188.275 km
Eccentricity
0.01807
Inclination
98.5364°
RAAN
229.3584°
Arg. of periapsis
79.4118°
True anomaly
41.89116°
Mean anomaly
40.5223°
Eccentric anomaly
41.20437°
Mean motion
3.56128 °/min
Orbital period
101.09 mins
BSTAR
0.00017491
Loading maneuver chart data...
Computing Atmospheric mass density...
Loading historical data...
Loading historical data...
Loading historical data...
Loading historical data...
Loading historical data...
Loading historical data...
Loading historical data...

Documentation

Showing up to 5 results
|